Location: Ajisawe
(8.4333°N, 4.3833°E)
Time: 20:15:08
(UTC+00:00)

STARLINK-1146 - Pass Details

Date: 06 October 2020
Orbit: 549 x 550 km, 53.0° (Epoch: 29 October)

Event Time Altitude Azimuth Distance (km) Brightness Sun altitude
Rises 19:12:48 0° 322° (NW) 2,703 7.6 -26.1°
Reaches altitude 10° 19:15:02 10° 320° (NW) 1,811 6.7 -26.6°
Enters shadow 19:17:34 36° 312° (NW) 876 4.9 -27.3°
